TimePST,TemperatureF,Dew PointF,Humidity,Sea Level PressureIn,VisibilityMPH,Wind Direction,Wind SpeedMPH,Gust SpeedMPH,PrecipitationIn,Events,Conditions,WindDirDegrees,DateUTC
12:53 AM,62.1,16.0,17,30.23,10.0,WSW,6.9,-,N/A,,Clear,240,2013-02-16 08:53:00
1:53 AM,60.1,16.0,18,30.22,10.0,WSW,6.9,-,N/A,,Clear,250,2013-02-16 09:53:00
2:53 AM,57.0,19.9,24,30.20,10.0,West,3.5,-,N/A,,Clear,270,2013-02-16 10:53:00
3:53 AM,61.0,14.0,16,30.20,10.0,West,4.6,-,N/A,,Clear,260,2013-02-16 11:53:00
4:53 AM,61.0,15.1,17,30.19,10.0,West,6.9,-,N/A,,Clear,260,2013-02-16 12:53:00
5:53 AM,59.0,17.1,20,30.20,10.0,West,5.8,-,N/A,,Clear,270,2013-02-16 13:53:00
6:53 AM,59.0,18.0,20,30.22,10.0,Calm,Calm,-,N/A,,Clear,0,2013-02-16 14:53:00
7:53 AM,57.9,24.1,27,30.23,10.0,Calm,Calm,-,N/A,,Scattered Clouds,0,2013-02-16 15:53:00
8:53 AM,66.9,21.0,17,30.22,10.0,Calm,Calm,-,N/A,,Clear,0,2013-02-16 16:53:00
9:53 AM,72.0,16.0,12,30.21,10.0,Calm,Calm,-,N/A,,Clear,0,2013-02-16 17:53:00
10:53 AM,75.0,16.0,11,30.19,10.0,Variable,3.5,-,N/A,,Clear,0,2013-02-16 18:53:00
11:53 AM,75.9,15.1,10,30.15,10.0,SE,5.8,-,N/A,,Clear,140,2013-02-16 19:53:00
12:53 PM,78.1,8.1,7,30.10,10.0,SE,8.1,-,N/A,,Mostly Cloudy,140,2013-02-16 20:53:00
1:53 PM,78.1,5.0,6,30.06,10.0,ESE,10.4,-,N/A,,Clear,110,2013-02-16 21:53:00
2:53 PM,78.1,8.1,7,30.03,10.0,East,8.1,-,N/A,,Scattered Clouds,100,2013-02-16 22:53:00
3:53 PM,78.1,10.0,7,30.00,10.0,East,8.1,-,N/A,,Scattered Clouds,90,2013-02-16 23:53:00
4:53 PM,75.9,12.0,9,29.99,10.0,East,5.8,-,N/A,,Scattered Clouds,90,2013-02-17 00:53:00
5:53 PM,71.1,19.0,14,29.99,10.0,Calm,Calm,-,N/A,,Clear,0,2013-02-17 01:53:00
6:53 PM,68.0,18.0,15,29.99,10.0,WNW,3.5,-,N/A,,Clear,290,2013-02-17 02:53:00
7:53 PM,61.0,16.0,17,29.99,10.0,NNW,8.1,-,N/A,,Clear,340,2013-02-17 03:53:00
8:53 PM,61.0,19.0,20,29.99,10.0,NNW,8.1,-,N/A,,Clear,330,2013-02-17 04:53:00
9:53 PM,61.0,16.0,17,29.99,10.0,NNW,5.8,-,N/A,,Clear,330,2013-02-17 05:53:00
10:53 PM,59.0,16.0,19,29.97,10.0,NW,10.4,-,N/A,,Clear,320,2013-02-17 06:53:00
11:53 PM,55.9,19.9,25,29.96,10.0,NNW,4.6,-,N/A,,Clear,330,2013-02-17 07:53:00